Regional Weather Roundup
Issued by NWS

Home | Current Version | Previous Version | Graphics & Text | Print | Product List | Glossary On
Versions: 1 2 3 4 5 6 7 8 9 10 11 12 13 14 15 16 17 18 19 20 21 22 23 24 25 26 27 28 29 30 31 32 33 34 35 36 37 38 39 40 41 42 43 44 45 46 47 48 49 50
000
ASUS43 KOAX 062302
RWRNE

WEATHER ROUNDUP FOR NEBRASKA
NATIONAL WEATHER SERVICE OMAHA NE
600 PM CDT MON JUL 06 2015

NOTES: SATELLITE DATA IS BEING USED TO AUGMENT CLOUD COVER ABOVE
       12000 FEET.
       "FAIR" INDICATES FEW OR NO CLOUDS BELOW 12,000 FEET WITH NO
       SIGNIFICANT WEATHER AND/OR OBSTRUCTIONS TO VISIBILITY.

  * THESE STATIONS DO NOT REPORT WEATHER SUCH AS RAIN...SNOW OR FOG.

NEZ001>004-019>022-054>056-070000-
NEBRASKA PANHANDLE

CITY           SKY/WX    TMP DP  RH WIND       PRES   REMARKS
SCOTTSBLUFF    CLOUDY    68  53  58 NE5       30.22F HAZE
ALLIANCE       CLOUDY    67  54  63 N9        30.21F HAZE
CHADRON        SUNNY     73  52  47 NE8       30.20F
KIMBALL          N/A    N/A N/A N/A MISG        N/A
SIDNEY         CLOUDY    68  52  56 NE14      30.23F HAZE
$$

NEZ057>060-069>072-079>082-070000-
SOUTHWEST NEBRASKA

CITY           SKY/WX    TMP DP  RH WIND       PRES   REMARKS
NORTH PLATTE   PTSUNNY   76  52  43 N16G23    30.11F
IMPERIAL       PTSUNNY   75  52  44 N15G23    30.14F
LEXINGTON      PTSUNNY   76  55  48 N15G22    30.07R HAZE
MCCOOK         MOSUNNY   77  54  44 N21       30.07F HAZE
$$

NEZ005>010-023>029-035>040-094-070000-
NORTH CENTRAL NEBRASKA

CITY           SKY/WX    TMP DP  RH WIND       PRES   REMARKS
VALENTINE      CLOUDY    72  52  49 N10       30.15F
AINSWORTH      PTSUNNY   71  54  55 N13G18    30.14F
BROKEN BOW     MOSUNNY   76  53  44 N17G25    30.08S HAZE
ORD            MOSUNNY   76  55  48 N21G29    30.05R HAZE
$$

NEZ041-046>049-061>064-073>077-083>087-070000-
SOUTH CENTRAL NEBRASKA

CITY           SKY/WX    TMP DP  RH WIND       PRES   REMARKS
GRAND ISLAND   PTSUNNY   75  57  53 N23       30.03R HAZE
AURORA         MOSUNNY   75  61  60 N16G24    30.01S HAZE
HASTINGS       MOSUNNY   75  57  53 N22G32    30.01R HAZE
KEARNEY *      PTSUNNY   75  55  50 N24G30    30.04R
$$

NEZ011>018-030>034-042>045-070000-
NORTHEAST NEBRASKA

CITY           SKY/WX    TMP DP  RH WIND       PRES   REMARKS
NORFOLK        CLOUDY    76  60  57 N18G26    30.01R HAZE
ALBION           N/A     74  55  51 N16G24    30.03R HAZE
BLAIR          CLOUDY    74  64  69 N22G30    29.95R
FREMONT        CLOUDY    74  62  66 N15G23    29.98R
TEKAMAH        CLOUDY    76  63  64 N18G26    29.97R HAZE
$$

NEZ050>053-065>068-078-088>093-070000-
SOUTHEAST NEBRASKA

CITY           SKY/WX    TMP DP  RH WIND       PRES   REMARKS
LINCOLN        CLOUDY    73  66  78 N21       29.96R
OMAHA EPPLEY   CLOUDY    74  66  76 N16G28    29.93R HAZE
BEATRICE       CLOUDY    71  68  91 N14G25    29.95R
FALLS CITY     LGT RAIN  73  71  93 N5        29.89R
NEBRASKA CITY  DRIZZLE   71  70  95 N21G28    29.92R
PLATTSMOUTH    CLOUDY    72  64  75 N10G18    29.94R HAZE
$$

NEZ044-045-051>053-067-070000-
OMAHA AREA

CITY           SKY/WX    TMP DP  RH WIND       PRES   REMARKS
OMAHA EPPLEY   CLOUDY    74  66  76 N16G28    29.93R HAZE
BLAIR          CLOUDY    74  64  69 N22G30    29.95R
FREMONT        CLOUDY    74  62  66 N15G23    29.98R
MILLARD        CLOUDY    75  66  73 N12G18    29.94R
PLATTSMOUTH    CLOUDY    72  64  75 N10G18    29.94R HAZE
WAHOO          CLOUDY    74  64  71 N18G29    29.97R
$$



USA.gov is the U.S. government's official web portal to all federal, state and local government web resources and services.